Location: Sternwarte_Laufen
(47.9344°N, 12.9346°E)
Time: 01:24:15
(UTC+02:00)

Envisat - Pass Details

Date: 13 May 2026
Orbit: 761 x 763 km, 98.4° (Epoch: 7 June)

Event Time Altitude Azimuth Distance (km) Brightness Sun altitude
Rises 02:10:34 0° 34° (NNE) 3,234 7.5 -22.1°
Reaches altitude 10° 02:14:55 10° 69° (ENE) 2,300 6.0 -21.9°
Maximum altitude 02:16:17 11° 85° (E) 2,228 5.7 -21.8°
Drops below altitude 10° 02:17:39 10° 101° (E) 2,295 5.5 -21.7°
Enters shadow 02:20:22 - 127° (SE) 2,785 5.7 -21.6°
